Location: *
(45.8589°N, 4.7139°E)
Time: 13:21:10
(UTC+00:00)

STARLINK-1222 - Pass Details

Date: 09 April 2020
Orbit: 376 x 383 km, 53.0° (Epoch: 27 May)

Event Time Altitude Azimuth Distance (km) Brightness Sun altitude
Rises 19:56:50 0° 300° (WNW) 2,271 8.6 -16.4°
Reaches altitude 10° 19:58:54 10° 298° (WNW) 1,414 7.1 -16.7°
Maximum altitude 20:02:03 68° 214° (SW) 419 2.9 -17.1°
Enters shadow 20:02:36 53° 157° (SSE) 481 3.0 -17.2°
